Location: Ústí nad Labem
(50.6611°N, 14.0531°E)
Time: 22:46:54
(UTC+02:00)

Altair - Visible Passes

Search period start: 12 April 2024 00:00
Search period end: 22 April 2024 00:00
Orbit: 1502 x 1682 km, 47.2° (Epoch: 11 April)

Date Brightness Start Highest point End Pass type
(mag) Time Alt. Az. Time Alt. Az. Time Alt. Az.
12 Apr 7.3 01:21:04 10° W 01:30:43 73° S 01:39:59 10° ESE visible
12 Apr 7.5 03:25:44 10° W 03:34:49 52° SSW 03:43:36 10° SE visible
12 Apr 8.4 05:31:20 10° W 05:37:47 21° SW 05:44:09 10° S visible
12 Apr 8.2 20:49:50 10° S 20:57:46 28° SE 21:05:31 10° E visible
12 Apr 7.5 22:51:37 10° SW 23:01:13 59° SSE 23:10:27 10° E visible
13 Apr 7.3 00:55:50 10° W 01:05:31 74° S 01:14:50 10° E visible
13 Apr 7.4 03:00:30 10° W 03:09:41 54° SSW 03:18:34 10° SE visible
13 Apr 8.3 05:05:56 10° W 05:12:45 23° SW 05:19:29 10° S visible
13 Apr 8.4 20:24:59 10° S 20:32:41 26° SE 20:40:13 10° E visible
13 Apr 7.5 22:26:29 10° SW 22:36:03 57° SSE 22:45:17 10° E visible
14 Apr 7.3 00:30:36 10° W 00:40:19 74° S 00:49:40 10° E visible
14 Apr 7.4 02:35:16 10° W 02:44:32 56° SSW 02:53:30 10° SE visible
14 Apr 8.2 04:40:33 10° W 04:47:43 25° SW 04:54:45 10° S visible
14 Apr 7.6 22:01:21 10° SW 22:10:53 55° SSE 22:20:05 10° E visible
15 Apr 7.3 00:05:22 10° W 00:15:08 74° S 00:24:30 10° E visible
15 Apr 7.4 02:10:03 10° W 02:19:24 59° SSW 02:28:25 10° SE visible
15 Apr 8.1 04:15:12 10° W 04:22:40 27° SW 04:29:58 10° S visible
15 Apr 7.7 21:36:13 10° SW 21:45:43 52° SSE 21:54:54 10° E visible
15 Apr 7.4 23:40:08 10° WSW 23:49:56 73° S 23:59:20 10° E visible
16 Apr 7.4 01:44:48 10° W 01:54:14 61° SSW 02:03:20 10° SE visible
16 Apr 8.0 03:49:53 10° W 03:57:37 29° SW 04:05:09 10° SSE visible
16 Apr 7.7 21:11:07 10° SW 21:20:34 50° SSE 21:29:43 10° E visible
16 Apr 7.4 23:14:55 10° WSW 23:24:44 73° S 23:34:10 10° E visible
17 Apr 7.4 01:19:34 10° W 01:29:05 63° SSW 01:38:14 10° ESE visible
17 Apr 7.9 03:24:34 10° W 03:32:33 32° SW 03:40:19 10° SSE visible
17 Apr 7.8 20:46:01 10° SW 20:55:24 48° SSE 21:04:31 10° E visible
17 Apr 7.4 22:49:41 10° WSW 22:59:32 72° S 23:09:00 10° E visible
18 Apr 7.4 00:54:19 10° W 01:03:54 65° SSW 01:08:05 37° SE visible
18 Apr 8.0 02:59:16 10° W 03:13:56 15° SSE 03:15:28 10° SSE visible
18 Apr 7.9 20:20:56 10° SW 20:30:16 46° SSE 20:39:19 10° E visible
18 Apr 7.5 22:24:27 10° WSW 22:34:19 71° S 22:43:49 10° E visible
19 Apr 7.4 00:29:05 10° W 00:38:44 66° SSW 00:42:49 38° SE visible
19 Apr 8.0 02:33:58 10° W 02:53:22 - SSE 02:40:44 34° WSW visible
19 Apr9.404:51:37SSW04:51:37SSW04:38:40Wvisible
19 Apr 7.5 21:59:14 10° WSW 22:09:08 70° S 22:18:39 10° E visible
20 Apr 7.4 00:03:50 10° W 00:13:33 68° SSW 00:18:04 35° ESE visible
20 Apr 7.9 02:08:41 10° W 02:16:01 37° SW 02:16:01 37° SW visible
20 Apr 7.6 21:34:01 10° WSW 21:43:55 69° SSE 21:53:29 10° E visible
20 Apr 7.4 23:38:36 10° W 23:48:22 69° SSW 23:53:31 31° ESE visible
21 Apr 7.8 01:43:25 10° W 01:51:29 40° SW 01:51:29 40° SW visible
21 Apr 7.6 21:08:48 10° WSW 21:18:43 68° SSE 21:28:18 10° E visible
21 Apr 7.4 23:13:21 10° W 23:23:11 71° S 23:29:05 27° ESE visible
